Location: Majorville
(50.6333°N, 112.7000°W)
Time: 13:54:17
(UTC+00:00)

ISS - Visible Passes

Search period start: 01 December 2021 00:00
Search period end: 11 December 2021 00:00
Orbit: 417 x 423 km, 51.6° (Epoch: 01 December)

Date Brightness Start Highest point End Pass type
(mag) Time Alt. Az. Time Alt. Az. Time Alt. Az.
01 Dec -3.7 00:38:44 10° W 00:42:08 72° N 00:44:34 18° E visible
01 Dec -1.9 02:15:37 10° WNW 02:17:34 31° W 02:17:34 31° W visible
02 Dec -3.8 01:28:26 10° WNW 01:31:51 84° SSW 01:32:21 62° ESE visible
03 Dec -3.8 00:41:14 10° WNW 00:44:39 83° N 00:47:13 16° E visible
03 Dec -1.7 02:18:10 10° W 02:20:12 28° WSW 02:20:12 28° WSW visible
04 Dec -3.0 01:30:53 10° W 01:34:12 50° SSW 01:35:10 36° SSE visible
05 Dec -3.4 00:43:39 10° WNW 00:47:03 67° SSW 00:50:16 11° ESE visible
05 Dec -1.2 02:21:03 10° W 02:23:17 18° SW 02:23:17 18° SW visible
06 Dec -1.7 01:33:30 10° W 01:36:23 25° SW 01:38:34 14° SSE visible
07 Dec -2.2 00:46:07 10° W 00:49:16 36° SSW 00:52:25 10° SE visible
08 Dec -0.6 01:36:56 10° WSW 01:38:20 12° SW 01:39:44 10° SSW visible
09 Dec -0.8 00:48:56 10° W 00:51:18 18° SW 00:53:39 10° S visible
10 Dec -1.2 00:01:21 10° W 00:04:13 25° SW 00:07:04 10° SSE visible
